CW6829 Weather Reports


Display with metric or nautical units.
time (UTC)temp
F
wind
direction
speed
MPH
gust
MPH
rain 1hr
in
rain 24hr
in
rain mn
in
humidity
%
barometer
mb
20260505062018 53 0.0 0.0 0.00 0.00 0.00 84 1012.9
20260505061020 54 0.0 0.0 0.00 0.00 0.00 84 1012.7
20260505060020 55 0.0 0.0 0.00 0.00 0.00 83 1012.5
20260505055019 55 0.0 0.0 0.00 0.00 0.00 82 1012.4
20260505054019 55 0.0 1.0 0.00 0.00 0.00 81 1012.3
20260505053018 56 0.0 2.0 0.00 0.00 0.00 80 1012.3
20260505052020 56 0.0 2.0 0.00 0.00 0.00 79 1012.3
20260505051018 57 315 1.0 3.0 0.00 0.00 0.00 78 1012.2
20260505041020 61 0.0 0.0 0.00 0.00 0.00 69 1011.8
20260505040041 62 0.0 2.0 0.00 0.00 0.00 68 1011.5
20260505035020 63 0.0 2.0 0.00 0.00 0.00 66 1011.5
20260505034021 64 0.0 3.0 0.00 0.00 0.00 65 1011.4
20260505033020 65 0.0 2.0 0.00 0.00 0.00 63 1011.2
20260505032041 66 293 1.0 5.0 0.00 0.00 0.00 61 1011.1
20260505031020 67 0.0 2.0 0.00 0.00 0.00 60 1010.9
20260505030020 68 0.0 3.0 0.00 0.00 0.00 60 1010.8
20260505025040 69 0.0 3.0 0.00 0.00 0.00 58 1010.7
20260505024020 69 0.0 2.0 0.00 0.00 0.00 56 1010.5
20260505023021 70 248 1.0 4.0 0.00 0.00 0.00 54 1010.4
20260505022021 71 293 1.0 6.0 0.00 0.00 0.00 54 1010.4
20260505021019 72 225 1.0 7.0 0.00 0.00 0.00 52 1010.4
20260505020019 73 248 2.0 7.0 0.00 0.00 0.00 51 1010.3
20260505015019 74 248 1.0 6.0 0.00 0.00 0.00 49 1010.3
20260505014021 75 225 1.0 6.0 0.00 0.00 0.00 47 1010.3
20260505013018 76 293 2.0 6.0 0.00 0.00 0.00 46 1010.3
20260505012041 77 225 1.0 6.0 0.00 0.00 0.00 44 1010.3
20260505011039 77 225 2.0 10.0 0.00 0.00 0.00 43 1010.3
20260505010020 77 270 3.0 7.0 0.00 0.00 0.00 43 1010.4
20260505005018 78 293 1.0 6.0 0.00 0.00 0.00 44 1010.3
20260505004019 79 315 2.0 6.0 0.00 0.00 0.00 42 1010.3
20260505003018 78 225 3.0 7.0 0.00 0.00 0.00 38 1010.3
20260505002021 78 225 2.0 8.0 0.00 0.00 0.00 40 1010.3
20260505001019 79 315 2.0 10.0 0.00 0.00 0.00 41 1010.4
20260505000040 79 270 1.0 7.0 0.00 0.00 0.00 41 1010.3
20260504235039 79 315 3.0 9.0 0.00 0.00 0.00 40 1010.4
20260504234019 79 293 3.0 8.0 0.00 0.00 0.00 40 1010.3
20260504233019 79 315 3.0 10.0 0.00 0.00 0.00 42 1010.4
20260504232021 79 315 2.0 8.0 0.00 0.00 0.00 42 1010.5
20260504231020 79 293 3.0 10.0 0.00 0.00 0.00 44 1010.5
20260504230018 79 315 3.0 12.0 0.00 0.00 0.00 45 1010.6
20260504225020 80 293 2.0 9.0 0.00 0.00 0.00 48 1010.7
20260504224019 79 315 3.0 12.0 0.00 0.00 0.00 47 1010.7
20260504223020 79 338 3.0 10.0 0.00 0.00 0.00 48 1010.8
20260504222019 79 315 3.0 9.0 0.00 0.00 0.00 48 1010.9
20260504221019 79 225 3.0 10.0 0.00 0.00 0.00 46 1010.8
20260504220058 79 315 2.0 9.0 0.00 0.00 0.00 44 1011.0
20260504215019 79 338 2.0 11.0 0.00 0.00 0.00 44 1011.1
20260504214019 79 293 2.0 11.0 0.00 0.00 0.00 44 1011.0
20260504213018 79 293 1.0 9.0 0.00 0.00 0.00 46 1011.0
20260504212020 79 315 1.0 9.0 0.00 0.00 0.00 47 1011.2
20260504211020 78 315 1.0 8.0 0.00 0.00 0.00 46 1011.3
20260504210019 78 315 2.0 9.0 0.00 0.00 0.00 45 1011.3
20260504205019 78 315 1.0 7.0 0.00 0.00 0.00 45 1011.4
20260504204020 78 338 2.0 8.0 0.00 0.00 0.00 44 1011.4
20260504203018 77 315 1.0 8.0 0.00 0.00 0.00 47 1011.5
20260504202019 77 270 2.0 8.0 0.00 0.00 0.00 47 1011.5
20260504201019 77 293 2.0 8.0 0.00 0.00 0.00 45 1011.5
20260504200038 77 293 1.0 8.0 0.00 0.00 0.00 47 1011.5
20260504195018 76 315 2.0 7.0 0.00 0.00 0.00 48 1011.7
20260504194022 76 0 2.0 8.0 0.00 0.00 0.00 49 1011.7
20260504193020 75 293 2.0 9.0 0.00 0.00 0.00 50 1011.7
20260504192020 75 315 3.0 9.0 0.00 0.00 0.00 51 1011.7
20260504191100 75 315 2.0 9.0 0.00 0.00 0.00 52 1011.9
20260504190040 74 315 3.0 8.0 0.00 0.00 0.00 52 1012.0
20260504185020 75 338 1.0 6.0 0.00 0.00 0.00 53 1012.1
20260504184020 74 270 2.0 6.0 0.00 0.00 0.00 50 1012.1
20260504183020 73 315 2.0 7.0 0.00 0.00 0.00 49 1012.1
20260504182020 73 0 2.0 8.0 0.00 0.00 0.00 52 1012.1
20260504181020 73 248 1.0 6.0 0.00 0.00 0.00 50 1012.1
20260504180020 72 315 1.0 4.0 0.00 0.00 0.00 53 1012.1
20260504175021 71 293 1.0 6.0 0.00 0.00 0.00 56 1012.2
20260504174021 71 315 2.0 7.0 0.00 0.00 0.00 55 1012.1
20260504173019 71 270 1.0 7.0 0.00 0.00 0.00 56 1012.2
20260504172021 70 338 1.0 5.0 0.00 0.00 0.00 57 1012.2
20260504171019 70 338 1.0 4.0 0.00 0.00 0.00 56 1012.2
20260504151019 60 0.0 0.0 0.00 0.00 0.00 78 1011.7
20260504141020 52 0.0 0.0 0.00 0.00 0.00 90 1011.2
20260504081019 56 0.0 0.0 0.00 0.00 0.00 83 1010.5